Regional Weather Roundup
Issued by NWS

Home | Current Version | Previous Version | Graphics & Text | Print | Product List | Glossary On
Versions: 1 2 3 4 5 6 7 8 9 10 11 12 13 14 15 16 17 18 19 20 21 22 23 24 25 26 27 28 29 30 31 32 33 34 35 36 37 38 39 40 41 42 43 44 45 46 47 48 49 50
000
ASUS43 KBIS 271202
RWRND

NORTH DAKOTA REGIONAL WEATHER ROUNDUP
NATIONAL WEATHER SERVICE BISMARCK ND
700 AM CDT SAT AUG 27 2016

NOTE: "FAIR" INDICATES FEW OR NO CLOUDS BELOW 12,000 FEET WITH NO
SIGNIFICANT WEATHER AND/OR OBSTRUCTIONS TO VISIBILITY.


NDZ001>003-009>011-017-271300-
NORTHWEST NORTH DAKOTA

CITY           SKY/WX    TMP DP  RH WIND       PRES   REMARKS
WILLISTON      CLEAR     45  41  86 CALM      29.92R
6HR MIN TEMP:  44; 6HR MAX TEMP:  55;

MINOT          MOCLDY    56  52  86 CALM      29.89S
MINOT AFB      MOCLDY    48  47  95 W5        29.89R
$$

NDZ018>021-031>035-040>046-271300-
SOUTHWEST NORTH DAKOTA

CITY           SKY/WX    TMP DP  RH WIND       PRES   REMARKS
BISMARCK       CLEAR     48  48 100 CALM      29.93S
6HR MIN TEMP:  48; 6HR MAX TEMP:  56;

DICKINSON      MOCLDY    50  46  86 S7        29.91F
GARRISON         N/A     53  52  96 W6        29.90F
6HR MIN TEMP:  51; 6HR MAX TEMP:  62; 6HR PCP:  0.01;

HETTINGER ARPT FOG       42  41  96 E3        29.97S VSB 1/4
$$

NDZ004>008-012>016-024-026-027-054-271300-
NORTHEAST NORTH DAKOTA

CITY           SKY/WX    TMP DP  RH WIND       PRES   REMARKS
GRAND FORKS    LGT RAIN  60  57  89 S14       29.95S
GRND FRKS AFB  LGT RAIN  59  57  94 S10       29.96R
DEVILS LAKE    CLOUDY    56  53  90 SE8       29.93S
$$

NDZ022-023-025-028>030-036>039-047>053-271300-
SOUTHEAST NORTH DAKOTA

CITY           SKY/WX    TMP DP  RH WIND       PRES   REMARKS
FARGO          CLOUDY    61  59  93 SE8       29.98S
6HR MIN TEMP:  61; 6HR MAX TEMP:  64; 6HR PCP:  0.07;

JAMESTOWN      CLOUDY    57  56  96 S8        29.94S
$$





USA.gov is the U.S. government's official web portal to all federal, state and local government web resources and services.